|
NORAD ID: 28332 Int'l Code: 1991-082AV
Perigee: 760.5 km
Apogee: 834.2 km
Inclination: 98.8 °
Period: 100.7 minutes
Semi major axis: 7168 km
Launch date: November 28, 1991
Source: United States (US)
Note: This is SATELLITE DEBRIS
Two Line Element Set (TLE):
1 28332U 91082AV 13138.31178704 .00012000 00000-0 45540-2 0 180
2 28332 098.7757 146.9707 0051413 264.2549 094.8109 14.30459392466538
Source:
NASA's NSSDC Master Catalog entry for DMSP 5D-2 F11 DEB
|